This is the latest recevied weather packets stored in our database for station/object KC1IUC-15. If no packets are shown the sender has not sent any weather packets the latest 10 day(s).
| Time | Temp. | Humidity | Pressure | Rain* | Wind** | Luminosity | Snow |
|---|---|---|---|---|---|---|---|
| 1777819803 | 11.11° C | 41% | 1008.9 hPa | 0 mm | - | 665 W/m² | - |
| 1777819503 | 11.11° C | 42% | 1008.9 hPa | 0 mm | - | 704 W/m² | - |
| 1777819203 | 11.11° C | 42% | 1008.9 hPa | 0 mm | - | 587 W/m² | - |
| 1777818904 | 10.56° C | 44% | 1008.9 hPa | 0 mm | - | 662 W/m² | - |
| 1777818603 | 10.56° C | 43% | 1008.9 hPa | 0 mm | - | 314 W/m² | - |
| 1777818303 | 10° C | 45% | 1009.3 hPa | 0 mm | - | 722 W/m² | - |
| 1777818003 | 10° C | 47% | 1009.6 hPa | 0 mm | - | 419 W/m² | - |
| 1777817703 | 10° C | 48% | 1009.3 hPa | 0 mm | - | 430 W/m² | - |
| 1777817404 | 10° C | 48% | 1009.3 hPa | 0 mm | - | 415 W/m² | - |
| 1777817103 | 10° C | 48% | 1009.3 hPa | 0 mm | - | 327 W/m² | - |
| 1777816803 | 9.44° C | 48% | 1009.3 hPa | 0 mm | - | 310 W/m² | - |
| 1777816503 | 10° C | 47% | 1009.6 hPa | 0 mm | - | 310 W/m² | - |
| 1777816203 | 10° C | 49% | 1009.3 hPa | 0 mm | - | 284 W/m² | - |
| 1777815903 | 10° C | 50% | 1009.6 hPa | 0 mm | - | 254 W/m² | - |
| 1777815603 | 10° C | 51% | 1009.3 hPa | 0 mm | - | 368 W/m² | - |
| 1777815303 | 9.44° C | 52% | 1009.6 hPa | 0 mm | - | 494 W/m² | - |
| 1777815003 | 9.44° C | 53% | 1009.6 hPa | 0 mm | - | 277 W/m² | - |
| 1777814703 | 8.89° C | 55% | 1009.6 hPa | 0 mm | - | 271 W/m² | - |
| 1777814403 | 8.33° C | 55% | 1009.9 hPa | 0 mm | - | 259 W/m² | - |
| 1777814103 | 8.33° C | 56% | 1009.9 hPa | 0 mm | - | 216 W/m² | - |
| 1777813803 | 8.33° C | 55% | 1009.6 hPa | 0 mm | - | 203 W/m² | - |
| 1777813503 | 8.33° C | 54% | 1009.9 hPa | 0 mm | - | 188 W/m² | - |
| 1777813204 | 8.33° C | 55% | 1009.9 hPa | 0 mm | - | 185 W/m² | - |
| 1777812904 | 7.78° C | 56% | 1009.6 hPa | 0 mm | - | 208 W/m² | - |
| 1777812603 | 8.33° C | 56% | 1009.6 hPa | 0 mm | - | 160 W/m² | - |
* Rain latest hour (hover to see other rain measurements)
** Current wind speed in m/s (hover to see current wind gust speed)